TimeEDT,TemperatureF,Dew PointF,Humidity,Sea Level PressureIn,VisibilityMPH,Wind Direction,Wind SpeedMPH,Gust SpeedMPH,PrecipitationIn,Events,Conditions,WindDirDegrees,DateUTC
12:51 AM,30.9,30.0,96,30.04,10.0,Calm,Calm,-,N/A,,Clear,0,2012-10-10 04:51:00
1:08 AM,30.2,28.4,93,30.01,10.0,Calm,Calm,-,N/A,,Scattered Clouds,0,2012-10-10 05:08:00
1:16 AM,30.2,28.4,93,30.00,10.0,Calm,Calm,-,N/A,,Mostly Cloudy,0,2012-10-10 05:16:00
1:34 AM,30.2,28.4,93,30.00,9.0,Calm,Calm,-,N/A,,Scattered Clouds,0,2012-10-10 05:34:00
1:51 AM,30.9,30.0,96,30.04,10.0,Calm,Calm,-,N/A,,Scattered Clouds,0,2012-10-10 05:51:00
1:58 AM,32.0,30.2,93,30.00,10.0,Calm,Calm,-,N/A,,Mostly Cloudy,0,2012-10-10 05:58:00
2:14 AM,33.8,33.8,100,29.99,10.0,Calm,Calm,-,N/A,,Overcast,0,2012-10-10 06:14:00
2:51 AM,37.0,36.0,96,30.00,10.0,Calm,Calm,-,N/A,,Overcast,0,2012-10-10 06:51:00
3:18 AM,37.4,37.4,100,29.96,10.0,Calm,Calm,-,N/A,,Overcast,0,2012-10-10 07:18:00
3:51 AM,39.0,37.9,96,29.98,10.0,Calm,Calm,-,N/A,,Overcast,0,2012-10-10 07:51:00
4:43 AM,46.4,42.8,87,29.93,10.0,South,3.5,-,N/A,,Overcast,180,2012-10-10 08:43:00
4:51 AM,45.0,43.0,93,29.95,10.0,Calm,Calm,-,N/A,,Overcast,0,2012-10-10 08:51:00
5:51 AM,46.9,44.1,90,29.94,10.0,South,4.6,-,N/A,,Overcast,180,2012-10-10 09:51:00
6:51 AM,48.0,44.1,86,29.93,10.0,SSE,4.6,-,N/A,,Overcast,160,2012-10-10 10:51:00
7:17 AM,48.2,44.6,87,29.90,10.0,South,4.6,-,N/A,,Overcast,170,2012-10-10 11:17:00
7:51 AM,48.9,45.0,86,29.91,10.0,South,5.8,-,N/A,,Overcast,170,2012-10-10 11:51:00
8:23 AM,50.0,44.6,82,29.87,10.0,South,8.1,-,N/A,,Overcast,180,2012-10-10 12:23:00
8:51 AM,51.1,45.0,80,29.89,10.0,South,10.4,-,N/A,,Overcast,180,2012-10-10 12:51:00
9:02 AM,51.8,44.6,76,29.86,10.0,South,8.1,-,N/A,,Overcast,180,2012-10-10 13:02:00
9:11 AM,51.8,44.6,76,29.85,10.0,South,9.2,-,N/A,,Overcast,180,2012-10-10 13:11:00
10:16 AM,50.0,46.4,87,29.83,2.5,South,8.1,-,N/A,,Overcast,190,2012-10-10 14:16:00
10:25 AM,50.0,48.2,94,29.83,5.0,South,5.8,-,N/A,,Overcast,170,2012-10-10 14:25:00
10:51 AM,51.1,46.9,86,29.84,10.0,South,9.2,-,N/A,,Overcast,190,2012-10-10 14:51:00
11:46 AM,53.6,46.4,77,29.78,10.0,SSW,17.3,24.2,N/A,,Overcast,200,2012-10-10 15:46:00
11:51 AM,53.1,45.0,74,29.81,10.0,South,17.3,32.2,N/A,,Overcast,190,2012-10-10 15:51:00
12:12 PM,53.6,46.4,77,29.77,10.0,South,16.1,21.9,N/A,,Overcast,190,2012-10-10 16:12:00
12:27 PM,55.4,46.4,72,29.76,10.0,South,15.0,24.2,N/A,,Overcast,180,2012-10-10 16:27:00
12:51 PM,53.1,45.0,74,29.79,10.0,SSW,21.9,33.4,N/A,,Overcast,200,2012-10-10 16:51:00
1:48 PM,51.8,48.2,88,29.73,2.5,SW,10.4,-,0.00,Rain,Light Rain,220,2012-10-10 17:48:00
1:51 PM,51.1,48.0,89,29.76,2.0,SW,6.9,17.3,0.01,Rain,Light Rain,230,2012-10-10 17:51:00
1:58 PM,50.0,48.2,94,29.73,3.0,WSW,9.2,-,0.00,Rain,Light Rain,240,2012-10-10 17:58:00
2:47 PM,53.6,51.8,94,29.69,10.0,SSW,16.1,20.7,0.01,,Mostly Cloudy,210,2012-10-10 18:47:00
2:51 PM,53.1,50.0,89,29.72,10.0,SSW,16.1,-,0.01,,Mostly Cloudy,210,2012-10-10 18:51:00
3:51 PM,53.1,46.9,80,29.71,10.0,SW,12.7,-,N/A,,Overcast,220,2012-10-10 19:51:00
4:51 PM,53.1,42.1,66,29.71,10.0,SW,10.4,-,N/A,,Mostly Cloudy,230,2012-10-10 20:51:00
5:41 PM,46.4,42.8,87,29.73,2.5,West,11.5,28.8,0.03,Rain,Rain,260,2012-10-10 21:41:00
5:51 PM,46.0,42.1,86,29.76,4.0,WSW,12.7,21.9,0.04,Rain,Light Rain,250,2012-10-10 21:51:00
6:12 PM,44.6,41.0,87,29.75,10.0,WSW,9.2,19.6,0.00,,Overcast,240,2012-10-10 22:12:00
6:51 PM,43.0,41.0,93,29.78,10.0,WSW,6.9,-,0.00,,Overcast,250,2012-10-10 22:51:00
7:51 PM,43.0,39.9,89,29.79,10.0,WSW,9.2,-,N/A,,Overcast,240,2012-10-10 23:51:00
8:43 PM,42.8,39.2,87,29.77,10.0,SW,4.6,-,N/A,,Mostly Cloudy,230,2012-10-11 00:43:00
8:51 PM,42.1,39.0,89,29.80,10.0,WSW,5.8,-,N/A,,Mostly Cloudy,250,2012-10-11 00:51:00
9:13 PM,42.8,39.2,87,29.79,10.0,West,3.5,-,N/A,,Mostly Cloudy,260,2012-10-11 01:13:00
9:51 PM,41.0,37.9,89,29.81,10.0,Variable,6.9,-,N/A,,Scattered Clouds,0,2012-10-11 01:51:00
10:21 PM,41.0,37.4,87,29.80,10.0,WSW,8.1,-,N/A,,Mostly Cloudy,240,2012-10-11 02:21:00
10:51 PM,41.0,37.0,86,29.82,10.0,Variable,5.8,17.3,N/A,,Mostly Cloudy,0,2012-10-11 02:51:00
11:46 PM,39.2,35.6,87,29.80,10.0,WSW,6.9,-,N/A,,Mostly Cloudy,250,2012-10-11 03:46:00
11:51 PM,39.0,35.1,86,29.82,10.0,WSW,5.8,-,N/A,,Mostly Cloudy,240,2012-10-11 03:51:00